�������l�o���
Date,Time,MP-1(��Sv/h),MP-2(��Sv/h),MP-3(��Sv/h),MP-4(��Sv/h),MP-5(��Sv/h),MP-6(��Sv/h),MP-7(��Sv/h),MP-8(��Sv/h),����,����(m/s),���J
2021/06/25,00:00,0.608,0.895,0.574,1.100,0.783,0.365,0.639,0.598,��쐼,1.7,��
2021/06/25,00:10,0.607,0.895,0.574,1.101,0.781,0.365,0.639,0.599,�쐼,2.0,��
2021/06/25,00:20,0.609,0.893,0.573,1.099,0.781,0.365,0.640,0.598,�쐼,1.9,��
2021/06/25,00:30,0.607,0.892,0.573,1.102,0.782,0.366,0.640,0.597,��쐼,1.9,��
2021/06/25,00:40,0.608,0.893,0.574,1.101,0.783,0.364,0.639,0.598,�쐼,2.6,��
2021/06/25,00:50,0.608,0.892,0.574,1.103,0.783,0.366,0.639,0.599,��쐼,2.8,��
2021/06/25,01:00,0.607,0.891,0.573,1.100,0.782,0.366,0.639,0.598,��쐼,3.3,��
2021/06/25,01:10,0.609,0.892,0.573,1.104,0.784,0.366,0.638,0.599,��,4.1,��
2021/06/25,01:20,0.608,0.892,0.575,1.102,0.781,0.365,0.640,0.599,��,3.9,��
2021/06/25,01:30,0.608,0.893,0.574,1.101,0.782,0.365,0.640,0.597,��,3.5,��
2021/06/25,01:40,0.608,0.890,0.573,1.101,0.780,0.367,0.638,0.598,��,4.7,��
2021/06/25,01:50,0.608,0.893,0.574,1.102,0.783,0.366,0.641,0.599,��,4.9,��
2021/06/25,02:00,0.608,0.894,0.573,1.100,0.782,0.366,0.641,0.599,��,4.3,��
2021/06/25,02:10,0.608,0.893,0.574,1.102,0.782,0.367,0.641,0.598,��,3.2,��
2021/06/25,02:20,0.607,0.891,0.573,1.104,0.783,0.365,0.640,0.599,��쐼,4.2,��
2021/06/25,02:30,0.607,0.893,0.573,1.101,0.781,0.366,0.640,0.598,��쐼,5.1,��
2021/06/25,02:40,0.608,0.894,0.572,1.102,0.782,0.367,0.639,0.598,��쐼,4.9,��
2021/06/25,02:50,0.609,0.892,0.572,1.103,0.783,0.366,0.641,0.598,��쐼,4.4,��
2021/06/25,03:00,0.607,0.893,0.575,1.103,0.783,0.366,0.639,0.598,�쐼,3.3,��
2021/06/25,03:10,0.607,0.892,0.573,1.104,0.783,0.366,0.639,0.598,�쐼,3.6,��
2021/06/25,03:20,0.607,0.893,0.573,1.102,0.784,0.366,0.639,0.598,��쐼,4.2,��
2021/06/25,03:30,0.606,0.894,0.575,1.102,0.782,0.365,0.640,0.599,��쐼,4.2,��
2021/06/25,03:40,0.609,0.893,0.574,1.100,0.782,0.367,0.639,0.598,��쐼,2.6,��
2021/06/25,03:50,0.607,0.894,0.574,1.101,0.781,0.366,0.641,0.598,��쐼,3.3,��
2021/06/25,04:00,0.607,0.892,0.574,1.100,0.783,0.366,0.639,0.600,��쐼,2.6,��
2021/06/25,04:10,0.608,0.892,0.574,1.102,0.782,0.366,0.640,0.597,�쐼,2.3,��
2021/06/25,04:20,0.608,0.893,0.573,1.101,0.783,0.367,0.639,0.599,�쐼,2.2,��
2021/06/25,04:30,0.608,0.894,0.573,1.102,0.782,0.367,0.639,0.598,��,2.5,��
2021/06/25,04:40,0.608,0.890,0.575,1.102,0.783,0.367,0.640,0.599,��,3.3,��
2021/06/25,04:50,0.608,0.894,0.574,1.103,0.782,0.366,0.638,0.599,��쓌,2.5,��
2021/06/25,05:00,0.607,0.893,0.574,1.100,0.782,0.366,0.639,0.600,��쓌,2.5,��
2021/06/25,05:10,0.609,0.894,0.573,1.100,0.783,0.366,0.642,0.596,��,3.3,��
2021/06/25,05:20,0.608,0.893,0.574,1.102,0.783,0.365,0.640,0.598,��,3.3,��
2021/06/25,05:30,0.609,0.892,0.574,1.100,0.782,0.367,0.641,0.599,��,3.8,��
2021/06/25,05:40,0.607,0.894,0.574,1.100,0.784,0.365,0.640,0.598,��,3.9,��
2021/06/25,05:50,0.611,0.893,0.574,1.104,0.782,0.366,0.642,0.599,��,3.7,��
2021/06/25,06:00,0.608,0.893,0.574,1.104,0.783,0.366,0.640,0.598,��,4.1,��
2021/06/25,06:10,0.606,0.893,0.574,1.103,0.782,0.367,0.641,0.598,��쐼,4.0,��
2021/06/25,06:20,0.609,0.893,0.576,1.103,0.783,0.366,0.640,0.599,��쐼,5.1,��
2021/06/25,06:30,0.608,0.890,0.576,1.102,0.782,0.367,0.640,0.599,�쐼,3.9,��
2021/06/25,06:40,0.608,0.891,0.575,1.104,0.782,0.367,0.641,0.599,�쐼,2.3,��
2021/06/25,06:50,0.608,0.890,0.574,1.102,0.782,0.366,0.641,0.599,��쐼,0.9,��
2021/06/25,07:00,0.610,0.894,0.576,1.105,0.783,0.367,0.641,0.599,��,0.8,��
2021/06/25,07:10,0.609,0.894,0.576,1.102,0.783,0.365,0.641,0.599,�쓌,1.1,��
2021/06/25,07:20,0.610,0.894,0.574,1.104,0.782,0.365,0.640,0.600,��,0.6,��
2021/06/25,07:30,0.608,0.894,0.575,1.105,0.781,0.366,0.640,0.600,�k��,0.9,��
2021/06/25,07:40,0.610,0.896,0.576,1.104,0.783,0.365,0.638,0.600,��,1.4,��
2021/06/25,07:50,0.609,0.897,0.577,1.106,0.785,0.365,0.639,0.598,�k��,1.5,��
2021/06/25,08:00,0.611,0.895,0.577,1.106,0.786,0.365,0.639,0.597,���k��,1.2,��
2021/06/25,08:10,0.609,0.897,0.576,1.102,0.784,0.365,0.641,0.599,��,1.5,��
2021/06/25,08:20,0.611,0.895,0.578,1.102,0.784,0.365,0.640,0.599,��,0.6,��
2021/06/25,08:30,0.610,0.898,0.577,1.105,0.786,0.361,0.639,0.598,�k�k��,0.8,��
2021/06/25,08:40,0.611,0.896,0.575,1.107,0.786,0.362,0.641,0.597,���쓌,1.5,��
2021/06/25,08:50,0.611,0.896,0.577,1.107,0.786,0.362,0.642,0.598,���쓌,1.2,��
2021/06/25,09:00,0.611,0.897,0.578,1.103,0.787,0.361,0.641,0.599,�쓌,2.2,��
2021/06/25,09:10,0.611,0.897,0.578,1.106,0.786,0.365,0.640,0.598,�쓌,2.3,��
2021/06/25,09:20,0.612,0.896,0.578,1.103,0.787,0.365,0.640,0.598,�쓌,2.5,��
2021/06/25,09:30,0.612,0.895,0.577,1.106,0.785,0.365,0.640,0.598,�쓌,2.3,��
2021/06/25,09:40,0.613,0.899,0.577,1.106,0.785,0.367,0.642,0.598,�쓌,2.0,��
2021/06/25,09:50,0.614,0.897,0.576,1.106,0.785,0.366,0.642,0.598,�쓌,4.0,��
2021/06/25,10:00,0.613,0.898,0.577,1.105,0.785,0.366,0.641,0.598,��쓌,3.0,��
2021/06/25,10:10,0.613,0.899,0.579,1.107,0.787,0.366,0.642,0.598,��쓌,4.4,��
2021/06/25,10:20,0.614,0.901,0.579,1.105,0.790,0.367,0.642,0.599,��쓌,5.6,��
2021/06/25,10:30,0.614,0.900,0.580,1.106,0.789,0.366,0.642,0.599,��,5.1,��
2021/06/25,10:40,0.614,0.901,0.579,1.106,0.787,0.366,0.643,0.598,��쓌,5.2,��
2021/06/25,10:50,0.613,0.899,0.578,1.107,0.790,0.366,0.642,0.600,��쓌,5.6,��
2021/06/25,11:00,0.615,0.901,0.581,1.106,0.788,0.365,0.643,0.599,��쓌,5.7,��
2021/06/25,11:10,0.613,0.903,0.580,1.108,0.789,0.367,0.643,0.599,��,5.6,��
2021/06/25,11:20,0.616,0.904,0.579,1.104,0.791,0.366,0.642,0.599,��쓌,7.4,��
2021/06/25,11:30,0.614,0.900,0.579,1.104,0.790,0.368,0.643,0.600,��쓌,7.0,��
2021/06/25,11:40,0.614,0.902,0.579,1.104,0.790,0.366,0.643,0.599,��,6.6,��
2021/06/25,11:50,0.613,0.903,0.580,1.103,0.790,0.367,0.642,0.599,��쓌,6.8,��
2021/06/25,12:00,0.614,0.902,0.579,1.105,0.790,0.367,0.641,0.600,��쓌,6.8,��
2021/06/25,12:10,0.614,0.906,0.578,1.105,0.791,0.366,0.642,0.600,��,8.9,��
2021/06/25,12:20,0.616,0.905,0.580,1.104,0.792,0.366,0.643,0.599,��,8.1,��
2021/06/25,12:30,0.614,0.906,0.580,1.105,0.790,0.367,0.642,0.599,��,8.7,��
2021/06/25,12:40,0.614,0.905,0.580,1.104,0.791,0.366,0.643,0.599,��,9.4,��
2021/06/25,12:50,0.615,0.904,0.581,1.106,0.791,0.366,0.643,0.598,��,7.7,��
2021/06/25,13:00,0.614,0.904,0.581,1.107,0.793,0.367,0.643,0.600,��쓌,8.4,��
2021/06/25,13:10,0.615,0.906,0.581,1.106,0.793,0.366,0.642,0.600,��쓌,10.2,��
2021/06/25,13:20,0.618,0.904,0.581,1.105,0.793,0.367,0.644,0.599,��쓌,10.2,��
2021/06/25,13:30,0.617,0.908,0.582,1.108,0.792,0.368,0.644,0.600,��쓌,9.5,��
2021/06/25,13:40,0.615,0.907,0.582,1.109,0.793,0.367,0.643,0.600,��쓌,10.2,��
2021/06/25,13:50,0.618,0.907,0.584,1.107,0.793,0.368,0.644,0.601,��쓌,11.4,��
2021/06/25,14:00,0.616,0.906,0.581,1.107,0.794,0.368,0.643,0.601,��쓌,11.8,��
2021/06/25,14:10,0.616,0.906,0.581,1.108,0.795,0.367,0.644,0.598,��쓌,11.3,��
2021/06/25,14:20,0.615,0.906,0.582,1.108,0.796,0.369,0.644,0.600,��쓌,11.8,��
2021/06/25,14:30,0.617,0.906,0.582,1.109,0.793,0.367,0.645,0.600,��쓌,10.5,��
2021/06/25,14:40,0.616,0.906,0.583,1.107,0.794,0.368,0.642,0.601,��쓌,13.3,��
2021/06/25,14:50,0.616,0.909,0.583,1.111,0.796,0.368,0.644,0.601,��쓌,11.9,��
2021/06/25,15:00,0.617,0.906,0.582,1.108,0.797,0.367,0.643,0.600,��쓌,13.1,��
2021/06/25,15:10,0.615,0.907,0.582,1.112,0.796,0.367,0.643,0.600,��쓌,12.2,��
2021/06/25,15:20,0.618,0.906,0.582,1.110,0.795,0.368,0.644,0.600,��쓌,14.6,��
2021/06/25,15:30,0.618,0.907,0.581,1.110,0.796,0.366,0.643,0.600,��,12.4,��
2021/06/25,15:40,0.619,0.908,0.583,1.111,0.796,0.367,0.644,0.600,��쓌,12.7,��
2021/06/25,15:50,0.618,0.908,0.584,1.113,0.794,0.367,0.643,0.600,��,8.9,��
2021/06/25,16:00,0.619,0.909,0.584,1.111,0.795,0.369,0.643,0.600,��쓌,11.9,��
2021/06/25,16:10,0.618,0.907,0.584,1.111,0.797,0.368,0.645,0.601,��,9.0,�L
2021/06/25,16:20,0.616,0.909,0.583,1.113,0.796,0.368,0.645,0.601,��,10.0,��
2021/06/25,16:30,0.618,0.908,0.583,1.114,0.796,0.367,0.646,0.601,��,8.7,��
2021/06/25,16:40,0.617,0.909,0.583,1.112,0.795,0.367,0.644,0.601,��,7.2,��
2021/06/25,16:50,0.620,0.910,0.583,1.112,0.796,0.367,0.644,0.599,��,7.5,��
2021/06/25,17:00,0.617,0.908,0.583,1.115,0.797,0.368,0.646,0.600,��,8.2,��
2021/06/25,17:10,0.618,0.908,0.584,1.111,0.796,0.368,0.644,0.600,��,7.4,��
2021/06/25,17:20,0.619,0.909,0.581,1.113,0.797,0.367,0.644,0.601,��,7.9,��
2021/06/25,17:30,0.619,0.910,0.582,1.112,0.797,0.368,0.642,0.601,��쓌,7.9,��
2021/06/25,17:40,0.619,0.910,0.584,1.116,0.796,0.369,0.643,0.601,��,7.7,�L
2021/06/25,17:50,0.618,0.909,0.583,1.116,0.794,0.366,0.644,0.600,��,6.6,��
2021/06/25,18:00,0.618,0.909,0.583,1.114,0.798,0.367,0.644,0.600,��,7.8,��
2021/06/25,18:10,0.617,0.911,0.583,1.116,0.797,0.367,0.645,0.600,��,7.8,��
2021/06/25,18:20,0.618,0.911,0.585,1.116,0.795,0.367,0.642,0.600,��,9.0,��
2021/06/25,18:30,0.619,0.910,0.585,1.120,0.797,0.368,0.644,0.600,��,7.5,��
2021/06/25,18:40,0.618,0.911,0.584,1.115,0.797,0.368,0.643,0.602,��,7.4,��
2021/06/25,18:50,0.618,0.910,0.584,1.117,0.798,0.368,0.644,0.604,��,7.7,��
2021/06/25,19:00,0.616,0.909,0.584,1.116,0.797,0.368,0.647,0.604,��,7.8,��
2021/06/25,19:10,0.619,0.911,0.586,1.115,0.797,0.368,0.643,0.602,��,6.8,��
2021/06/25,19:20,0.618,0.911,0.585,1.120,0.796,0.367,0.645,0.603,��,6.7,��
2021/06/25,19:30,0.618,0.912,0.585,1.117,0.798,0.368,0.645,0.601,��,6.7,��
2021/06/25,19:40,0.619,0.912,0.586,1.118,0.798,0.368,0.646,0.604,��,6.1,��
2021/06/25,19:50,0.618,0.910,0.587,1.120,0.798,0.369,0.646,0.603,��,5.9,��
2021/06/25,20:00,0.616,0.911,0.588,1.119,0.798,0.367,0.646,0.603,��,6.0,��
2021/06/25,20:10,0.618,0.914,0.585,1.116,0.801,0.366,0.647,0.602,��,5.3,��
2021/06/25,20:20,0.618,0.915,0.586,1.116,0.801,0.369,0.646,0.603,��,5.6,��
2021/06/25,20:30,0.617,0.914,0.586,1.118,0.800,0.368,0.646,0.602,��,5.1,��
2021/06/25,20:40,0.618,0.916,0.586,1.118,0.801,0.368,0.646,0.603,��,5.3,��
2021/06/25,20:50,0.619,0.913,0.587,1.117,0.797,0.369,0.646,0.603,��,6.2,��
2021/06/25,21:00,0.618,0.913,0.586,1.116,0.800,0.369,0.647,0.603,��,6.6,��
2021/06/25,21:10,0.618,0.913,0.584,1.118,0.801,0.367,0.646,0.602,��,6.6,��
2021/06/25,21:20,0.617,0.914,0.586,1.118,0.800,0.368,0.646,0.603,��,6.7,��
2021/06/25,21:30,0.618,0.916,0.585,1.118,0.801,0.368,0.645,0.602,��,6.2,��
2021/06/25,21:40,0.620,0.916,0.585,1.117,0.800,0.368,0.646,0.603,��쐼,5.5,��
2021/06/25,21:50,0.619,0.915,0.586,1.117,0.799,0.368,0.647,0.602,��,4.9,��
2021/06/25,22:00,0.619,0.917,0.586,1.118,0.801,0.368,0.646,0.603,��쐼,4.1,��
2021/06/25,22:10,0.620,0.917,0.587,1.118,0.801,0.369,0.647,0.601,��쐼,4.0,��
2021/06/25,22:20,0.619,0.915,0.586,1.118,0.801,0.369,0.645,0.603,��쐼,2.6,��
2021/06/25,22:30,0.620,0.916,0.586,1.117,0.801,0.368,0.646,0.603,��쐼,1.9,��
2021/06/25,22:40,0.621,0.916,0.585,1.119,0.799,0.369,0.647,0.601,��쐼,2.2,��
2021/06/25,22:50,0.619,0.915,0.584,1.119,0.804,0.370,0.645,0.603,�쐼,1.5,��
2021/06/25,23:00,0.620,0.914,0.585,1.119,0.802,0.370,0.647,0.604,��쐼,1.9,��
2021/06/25,23:10,0.620,0.915,0.586,1.119,0.802,0.369,0.646,0.601,��,2.6,��
2021/06/25,23:20,0.620,0.916,0.585,1.119,0.801,0.370,0.645,0.602,��,3.3,��
2021/06/25,23:30,0.621,0.916,0.586,1.119,0.801,0.369,0.647,0.602,��,4.1,��
2021/06/25,23:40,0.621,0.916,0.583,1.118,0.802,0.370,0.646,0.602,��,4.4,��
2021/06/25,23:50,0.620,0.915,0.587,1.118,0.804,0.369,0.646,0.604,��,4.5,��
